Погода в Ершичах

Россия / Смоленская область     53°40′21″N   32°45′17″E
темп.,
°C
ветер,
м/с
пор.,
м/с
влажн.,
%
обл.,
%
осадки,
мм/ч
давл.,
гПа
погр.,
м
18 мая, вт
вт1800:00+17юв3129377 0.9 1002352
03:00+16юв3998100 0.9 1002281
06:00+16юв4998100 0.0 1003444
09:00+19ю5983100 0.1 1004719
12:00+18ю2580100 0.3 1004497
15:00+17ююв1386100 5.4 1003398
18:00+17юв2693100 2.4 1002262
21:00+14ююв379898 9.3 1002291
19 мая, ср
ср1900:00+14вюв399699 0.2 1002295
03:00+13юв3998100 0.2 1002295
06:00+12юв389882 0.0 1003279
09:00+16ююв4686100 0.0 1004653
12:00+19ю466477 0.3 10041381
15:00+19ююв4566100 1.1 10041179
18:00+16юв3590100 1.6 1005193
21:00+14ююз1195100 2.9 100511
20 мая, чт
чт2000:00+13зсз1199100 4.7 100458
03:00+13ю249999 7.1 1003262
06:00+12ю2598100 0.4 1002224
09:00+12ю3698100 3.6 1002354
12:00+12ююв4997100 1.8 1002695
15:00+10ююз51094100 2.8 1003755
18:00+9юз5993100 0.1 1004847
21:00+8юз4993100 0.2 1005740
21 мая, пт
пт2100:00+8зюз51094100 0.1 1006914
03:00+8з61194100 0.8 10071172
06:00+8з51296100 1.1 10081058
09:00+9з6128843 1.3 1012963
12:00+15з58524 0.0 10141340
15:00+16з4649100 0.0 10151587
18:00+15з3460100 0.0 10161297
21:00+11зюз1176100 0.0 101814
22 мая, сб
сб2200:00+8юз118556 0.0 101911
03:00+7сз118896 0.0 101910
06:00+8св118499 0.0 102023
09:00+14св23612 0.0 1019538
12:00+18в224963 0.0 10191435
15:00+19вюв334826 0.0 10171750
18:00+15юв237358 0.0 1017120
21:00+11юв2689100 0.0 1018137